Time,TemperatureF,DewpointF,PressureIn,WindDirection,WindDirectionDegrees,WindSpeedMPH,WindSpeedGustMPH,Humidity,HourlyPrecipIn,Conditions,Clouds,dailyrainin,SoftwareType,DateUTC
2013-03-27 00:00:00,31.5,29.1,30.18,West,280,1.2,2.0,91,0.00,,,0.00,WUHU216DAVISVP2,2013-03-27 04:00:00,
2013-03-27 00:05:00,31.4,28.8,30.18,NNW,330,0.0,2.0,90,0.00,,,0.00,WUHU216DAVISVP2,2013-03-27 04:05:00,
2013-03-27 00:10:00,31.5,28.3,30.18,WSW,249,1.1,2.0,88,0.00,,,0.00,WUHU216DAVISVP2,2013-03-27 04:10:00,
2013-03-27 00:15:00,32.0,28.5,30.18,West,259,1.0,2.0,87,0.00,,,0.00,WUHU216DAVISVP2,2013-03-27 04:15:00,
2013-03-27 00:20:00,31.7,28.2,30.18,SSE,166,0.0,2.0,87,0.00,,,0.00,WUHU216DAVISVP2,2013-03-27 04:20:00,
2013-03-27 00:25:00,32.4,28.1,30.18,SW,235,2.0,4.0,84,0.00,,,0.00,WUHU216DAVISVP2,2013-03-27 04:25:00,
2013-03-27 00:30:00,32.6,28.0,30.18,WNW,294,2.0,4.0,83,0.00,,,0.00,WUHU216DAVISVP2,2013-03-27 04:30:00,
2013-03-27 00:35:00,32.5,27.6,30.18,WSW,256,3.0,4.0,82,0.00,,,0.00,WUHU216DAVISVP2,2013-03-27 04:35:00,
2013-03-27 00:40:00,32.9,27.4,30.18,West,260,3.6,7.0,80,0.00,,,0.00,WUHU216DAVISVP2,2013-03-27 04:40:00,
2013-03-27 00:45:00,33.2,27.7,30.19,WSW,250,1.0,7.0,80,0.00,,,0.00,WUHU216DAVISVP2,2013-03-27 04:45:00,
2013-03-27 00:50:00,33.1,27.3,30.19,WSW,248,1.1,6.0,79,0.00,,,0.00,WUHU216DAVISVP2,2013-03-27 04:50:00,
2013-03-27 00:55:00,33.1,27.3,30.19,WNW,287,1.0,6.0,79,0.00,,,0.00,WUHU216DAVISVP2,2013-03-27 04:55:00,
2013-03-27 01:00:00,32.6,27.1,30.19,WNW,287,1.0,4.0,80,0.00,,,0.00,WUHU216DAVISVP2,2013-03-27 05:00:00,
2013-03-27 01:05:00,32.7,27.2,30.19,WSW,252,0.0,4.0,80,0.00,,,0.00,WUHU216DAVISVP2,2013-03-27 05:05:00,
2013-03-27 01:10:00,32.6,27.4,30.19,West,269,1.0,4.0,81,0.00,,,0.00,WUHU216DAVISVP2,2013-03-27 05:10:00,
2013-03-27 01:15:00,32.4,27.2,30.19,SSE,166,0.0,2.0,81,0.00,,,0.00,WUHU216DAVISVP2,2013-03-27 05:15:00,
2013-03-27 01:20:00,32.4,27.5,30.19,SW,235,1.0,2.0,82,0.00,,,0.00,WUHU216DAVISVP2,2013-03-27 05:20:00,
2013-03-27 01:25:00,32.4,27.2,30.19,WNW,293,1.4,2.0,81,0.00,,,0.00,WUHU216DAVISVP2,2013-03-27 05:25:00,
2013-03-27 01:30:00,32.7,27.5,30.19,WSW,253,2.0,3.0,81,0.00,,,0.00,WUHU216DAVISVP2,2013-03-27 05:30:00,
2013-03-27 01:35:00,32.9,27.7,30.19,WSW,252,1.2,3.0,81,0.00,,,0.00,WUHU216DAVISVP2,2013-03-27 05:35:00,
2013-03-27 01:40:00,33.0,27.8,30.19,West,273,1.0,3.0,81,0.00,,,0.00,WUHU216DAVISVP2,2013-03-27 05:40:00,
2013-03-27 01:45:00,32.9,27.7,30.19,WSW,243,2.0,3.0,81,0.00,,,0.00,WUHU216DAVISVP2,2013-03-27 05:45:00,
2013-03-27 01:50:00,33.1,27.9,30.19,WSW,247,1.0,3.0,81,0.00,,,0.00,WUHU216DAVISVP2,2013-03-27 05:50:00,
2013-03-27 01:55:00,33.1,27.9,30.19,WSW,243,1.3,5.0,81,0.00,,,0.00,WUHU216DAVISVP2,2013-03-27 05:55:00,
2013-03-27 02:00:00,33.2,27.7,30.19,WSW,255,2.0,5.0,80,0.00,,,0.00,WUHU216DAVISVP2,2013-03-27 06:00:00,
2013-03-27 02:05:00,33.3,27.8,30.19,West,264,2.0,5.0,80,0.00,,,0.00,WUHU216DAVISVP2,2013-03-27 06:05:00,
2013-03-27 02:10:00,33.3,27.8,30.19,WSW,250,1.5,4.0,80,0.00,,,0.00,WUHU216DAVISVP2,2013-03-27 06:10:00,
2013-03-27 02:15:00,33.3,27.8,30.19,WSW,238,4.0,4.0,80,0.00,,,0.00,WUHU216DAVISVP2,2013-03-27 06:15:00,
2013-03-27 02:20:00,33.4,27.9,30.19,WSW,247,1.8,4.0,80,0.00,,,0.00,WUHU216DAVISVP2,2013-03-27 06:20:00,
2013-03-27 02:25:00,33.3,27.8,30.19,West,262,3.0,6.0,80,0.00,,,0.00,WUHU216DAVISVP2,2013-03-27 06:25:00,
2013-03-27 02:30:00,33.4,27.9,30.19,West,263,2.0,6.0,80,0.00,,,0.00,WUHU216DAVISVP2,2013-03-27 06:30:00,
2013-03-27 02:35:00,33.4,27.9,30.18,West,263,3.0,6.0,80,0.00,,,0.00,WUHU216DAVISVP2,2013-03-27 06:35:00,
2013-03-27 02:40:00,33.5,28.0,30.18,WSW,253,2.0,6.0,80,0.00,,,0.00,WUHU216DAVISVP2,2013-03-27 06:40:00,
2013-03-27 02:45:00,33.5,28.0,30.18,WSW,258,2.6,5.0,80,0.00,,,0.00,WUHU216DAVISVP2,2013-03-27 06:45:00,
2013-03-27 02:50:00,33.3,27.8,30.18,WSW,245,2.0,5.0,80,0.00,,,0.00,WUHU216DAVISVP2,2013-03-27 06:50:00,
2013-03-27 02:55:00,33.4,28.2,30.18,West,279,2.6,6.0,81,0.00,,,0.00,WUHU216DAVISVP2,2013-03-27 06:55:00,
2013-03-27 03:00:00,33.4,27.9,30.18,West,267,2.4,6.0,80,0.00,,,0.00,WUHU216DAVISVP2,2013-03-27 07:00:00,
2013-03-27 03:05:00,33.4,28.2,30.18,WSW,253,2.3,6.0,81,0.00,,,0.00,WUHU216DAVISVP2,2013-03-27 07:05:00,
2013-03-27 03:10:00,33.5,28.0,30.18,WSW,248,3.0,6.0,80,0.00,,,0.00,WUHU216DAVISVP2,2013-03-27 07:10:00,
2013-03-27 03:16:00,33.5,28.0,30.18,West,260,2.6,6.0,80,0.00,,,0.00,WUHU216DAVISVP2,2013-03-27 07:16:00,
2013-03-27 03:20:00,33.6,28.1,30.18,West,259,2.3,7.0,80,0.00,,,0.00,WUHU216DAVISVP2,2013-03-27 07:20:00,
2013-03-27 03:25:00,33.6,28.4,30.18,WNW,283,2.4,7.0,81,0.00,,,0.00,WUHU216DAVISVP2,2013-03-27 07:25:00,
2013-03-27 03:30:00,33.5,28.3,30.18,WSW,255,2.0,7.0,81,0.00,,,0.00,WUHU216DAVISVP2,2013-03-27 07:30:00,
2013-03-27 03:35:00,33.4,28.2,30.18,WSW,255,3.0,7.0,81,0.00,,,0.00,WUHU216DAVISVP2,2013-03-27 07:35:00,
2013-03-27 03:41:00,33.4,28.5,30.18,WSW,249,1.5,7.0,82,0.00,,,0.00,WUHU216DAVISVP2,2013-03-27 07:41:00,
2013-03-27 03:46:00,33.2,28.3,30.18,NW,304,5.0,7.0,82,0.00,,,0.00,WUHU216DAVISVP2,2013-03-27 07:46:00,
2013-03-27 03:51:00,33.2,28.6,30.18,WSW,255,2.6,7.0,83,0.00,,,0.00,WUHU216DAVISVP2,2013-03-27 07:51:00,
2013-03-27 03:56:00,33.0,28.7,30.18,West,271,3.0,6.0,84,0.00,,,0.00,WUHU216DAVISVP2,2013-03-27 07:56:00,
2013-03-27 04:01:00,32.8,28.8,30.18,West,273,1.3,6.0,85,0.00,,,0.00,WUHU216DAVISVP2,2013-03-27 08:01:00,
2013-03-27 04:06:00,32.5,28.7,30.18,WNW,299,1.5,5.0,86,0.00,,,0.00,WUHU216DAVISVP2,2013-03-27 08:06:00,
2013-03-27 04:11:00,32.3,28.8,30.18,WSW,251,1.2,5.0,87,0.00,,,0.00,WUHU216DAVISVP2,2013-03-27 08:11:00,
2013-03-27 04:16:00,32.2,29.0,30.18,WSW,254,2.7,5.0,88,0.00,,,0.00,WUHU216DAVISVP2,2013-03-27 08:16:00,
2013-03-27 04:21:00,32.1,28.9,30.18,WSW,241,4.0,5.0,88,0.00,,,0.00,WUHU216DAVISVP2,2013-03-27 08:21:00,
2013-03-27 04:26:00,32.1,28.9,30.18,WNW,291,1.4,7.0,88,0.00,,,0.00,WUHU216DAVISVP2,2013-03-27 08:26:00,
2013-03-27 04:31:00,32.0,29.1,30.18,West,265,2.0,7.0,89,0.00,,,0.00,WUHU216DAVISVP2,2013-03-27 08:31:00,
2013-03-27 04:36:00,31.8,28.9,30.18,West,271,1.3,7.0,89,0.00,,,0.00,WUHU216DAVISVP2,2013-03-27 08:36:00,
2013-03-27 04:41:00,31.8,28.9,30.18,West,276,1.3,7.0,89,0.00,,,0.00,WUHU216DAVISVP2,2013-03-27 08:41:00,
2013-03-27 04:46:00,31.7,28.8,30.18,WSW,250,1.2,3.0,89,0.00,,,0.00,WUHU216DAVISVP2,2013-03-27 08:46:00,
2013-03-27 04:51:00,31.7,28.8,30.18,WSW,252,1.4,2.0,89,0.00,,,0.00,WUHU216DAVISVP2,2013-03-27 08:51:00,
2013-03-27 04:56:00,31.7,28.8,30.18,West,266,1.0,3.0,89,0.00,,,0.00,WUHU216DAVISVP2,2013-03-27 08:56:00,
2013-03-27 05:01:00,31.8,28.9,30.18,WNW,301,1.8,4.0,89,0.00,,,0.00,WUHU216DAVISVP2,2013-03-27 09:01:00,
2013-03-27 05:06:00,31.7,28.8,30.18,West,269,1.0,4.0,89,0.00,,,0.00,WUHU216DAVISVP2,2013-03-27 09:06:00,
2013-03-27 05:11:00,31.7,28.8,30.19,West,259,2.0,4.0,89,0.00,,,0.00,WUHU216DAVISVP2,2013-03-27 09:11:00,
2013-03-27 05:16:00,31.8,28.6,30.19,WSW,247,1.4,4.0,88,0.00,,,0.00,WUHU216DAVISVP2,2013-03-27 09:16:00,
2013-03-27 05:21:00,31.9,28.7,30.19,WSW,253,1.4,5.0,88,0.00,,,0.00,WUHU216DAVISVP2,2013-03-27 09:21:00,
2013-03-27 05:26:00,31.9,28.7,30.19,West,259,1.0,5.0,88,0.00,,,0.00,WUHU216DAVISVP2,2013-03-27 09:26:00,
2013-03-27 05:31:00,31.9,28.8,30.19,WNW,298,3.0,4.0,88,0.00,,,0.00,WUHU216DAVISVP2,2013-03-27 09:31:00,
2013-03-27 05:37:00,31.8,28.9,30.19,North,352,3.0,3.0,89,0.00,,,0.00,WUHU216DAVISVP2,2013-03-27 09:37:00,
2013-03-27 05:42:00,31.8,28.6,30.19,West,271,1.3,5.0,88,0.00,,,0.00,WUHU216DAVISVP2,2013-03-27 09:42:00,
2013-03-27 05:47:00,31.9,28.7,30.19,WNW,290,1.1,5.0,88,0.00,,,0.00,WUHU216DAVISVP2,2013-03-27 09:47:00,
2013-03-27 05:52:00,31.8,28.6,30.19,West,277,1.7,5.0,88,0.00,,,0.00,WUHU216DAVISVP2,2013-03-27 09:52:00,
2013-03-27 05:57:00,31.9,28.7,30.19,West,260,2.6,5.0,88,0.00,,,0.00,WUHU216DAVISVP2,2013-03-27 09:57:00,
2013-03-27 06:02:00,32.0,28.5,30.20,WSW,253,4.5,7.0,87,0.00,,,0.00,WUHU216DAVISVP2,2013-03-27 10:02:00,
2013-03-27 06:07:00,31.9,28.4,30.20,West,274,1.3,7.0,87,0.00,,,0.00,WUHU216DAVISVP2,2013-03-27 10:07:00,
2013-03-27 06:12:00,31.9,28.7,30.19,West,274,2.0,7.0,88,0.00,,,0.00,WUHU216DAVISVP2,2013-03-27 10:12:00,
2013-03-27 06:17:00,31.9,28.7,30.20,West,265,3.0,7.0,88,0.00,,,0.00,WUHU216DAVISVP2,2013-03-27 10:17:00,
2013-03-27 06:22:00,32.0,28.8,30.20,West,265,1.0,5.0,88,0.00,,,0.00,WUHU216DAVISVP2,2013-03-27 10:22:00,
2013-03-27 06:27:00,32.0,28.6,30.20,WNW,293,2.8,5.0,87,0.00,,,0.00,WUHU216DAVISVP2,2013-03-27 10:27:00,
2013-03-27 06:32:00,32.0,28.5,30.20,West,262,3.0,5.0,87,0.00,,,0.00,WUHU216DAVISVP2,2013-03-27 10:32:00,
2013-03-27 06:37:00,32.0,28.5,30.20,WSW,245,2.0,5.0,87,0.00,,,0.00,WUHU216DAVISVP2,2013-03-27 10:37:00,
2013-03-27 06:42:00,32.1,28.7,30.20,West,276,1.9,6.0,87,0.00,,,0.00,WUHU216DAVISVP2,2013-03-27 10:42:00,
2013-03-27 06:47:00,32.0,28.6,30.20,WSW,256,1.1,6.0,87,0.00,,,0.00,WUHU216DAVISVP2,2013-03-27 10:47:00,
2013-03-27 06:52:00,32.1,28.6,30.20,West,262,1.2,5.0,87,0.00,,,0.00,WUHU216DAVISVP2,2013-03-27 10:52:00,
2013-03-27 06:57:00,32.1,28.4,30.21,West,275,2.1,5.0,86,0.00,,,0.00,WUHU216DAVISVP2,2013-03-27 10:57:00,
2013-03-27 07:02:00,32.2,28.5,30.20,WNW,286,3.0,6.0,86,0.00,,,0.00,WUHU216DAVISVP2,2013-03-27 11:02:00,
2013-03-27 07:07:00,32.3,28.6,30.21,WSW,253,1.5,6.0,86,0.00,,,0.00,WUHU216DAVISVP2,2013-03-27 11:07:00,
2013-03-27 07:12:00,32.3,28.3,30.21,WNW,290,3.0,6.0,85,0.00,,,0.00,WUHU216DAVISVP2,2013-03-27 11:12:00,
2013-03-27 07:17:00,32.3,28.3,30.21,WSW,251,2.1,6.0,85,0.00,,,0.00,WUHU216DAVISVP2,2013-03-27 11:17:00,
2013-03-27 07:22:00,32.3,28.3,30.21,West,264,2.2,6.0,85,0.00,,,0.00,WUHU216DAVISVP2,2013-03-27 11:22:00,
2013-03-27 07:27:00,32.3,28.3,30.22,SW,223,4.0,6.0,85,0.00,,,0.00,WUHU216DAVISVP2,2013-03-27 11:27:00,
2013-03-27 07:32:00,32.4,28.1,30.22,WSW,254,2.6,6.0,84,0.00,,,0.00,WUHU216DAVISVP2,2013-03-27 11:32:00,
2013-03-27 07:37:00,32.4,28.1,30.22,West,263,1.5,6.0,84,0.00,,,0.00,WUHU216DAVISVP2,2013-03-27 11:37:00,
2013-03-27 07:42:00,32.4,28.1,30.22,West,266,3.0,6.0,84,0.00,,,0.00,WUHU216DAVISVP2,2013-03-27 11:42:00,
2013-03-27 07:47:00,32.4,28.1,30.23,West,262,2.0,6.0,84,0.00,,,0.00,WUHU216DAVISVP2,2013-03-27 11:47:00,
2013-03-27 07:52:00,32.5,27.9,30.23,WSW,250,3.2,9.0,83,0.00,,,0.00,WUHU216DAVISVP2,2013-03-27 11:52:00,
2013-03-27 07:57:00,32.5,27.9,30.23,WNW,295,2.0,9.0,83,0.00,,,0.00,WUHU216DAVISVP2,2013-03-27 11:57:00,
2013-03-27 08:02:00,32.5,27.9,30.23,WSW,249,2.2,8.0,83,0.00,,,0.00,WUHU216DAVISVP2,2013-03-27 12:02:00,
2013-03-27 08:07:00,32.5,27.6,30.23,WNW,289,4.4,9.0,82,0.00,,,0.00,WUHU216DAVISVP2,2013-03-27 12:07:00,
2013-03-27 08:12:00,32.5,27.9,30.23,West,274,4.0,9.0,83,0.00,,,0.00,WUHU216DAVISVP2,2013-03-27 12:12:00,
2013-03-27 08:17:00,32.6,27.7,30.23,WSW,249,3.8,9.0,82,0.00,,,0.00,WUHU216DAVISVP2,2013-03-27 12:17:00,
2013-03-27 08:22:00,32.6,27.7,30.24,WSW,252,2.7,9.0,82,0.00,,,0.00,WUHU216DAVISVP2,2013-03-27 12:22:00,
2013-03-27 08:27:00,32.7,27.8,30.24,WSW,247,3.3,7.0,82,0.00,,,0.00,WUHU216DAVISVP2,2013-03-27 12:27:00,
2013-03-27 08:32:00,32.7,27.8,30.24,West,271,1.5,7.0,82,0.00,,,0.00,WUHU216DAVISVP2,2013-03-27 12:32:00,
2013-03-27 08:37:00,32.8,27.9,30.24,West,274,1.7,6.0,82,0.00,,,0.00,WUHU216DAVISVP2,2013-03-27 12:37:00,
2013-03-27 08:42:00,32.8,27.9,30.24,WSW,255,1.2,6.0,82,0.00,,,0.00,WUHU216DAVISVP2,2013-03-27 12:42:00,
2013-03-27 08:47:00,32.8,27.9,30.25,WNW,295,3.0,4.0,82,0.00,,,0.00,WUHU216DAVISVP2,2013-03-27 12:47:00,
2013-03-27 08:52:00,32.7,27.8,30.25,WNW,294,2.0,4.0,82,0.00,,,0.00,WUHU216DAVISVP2,2013-03-27 12:52:00,
2013-03-27 08:57:00,32.7,27.8,30.25,West,273,3.0,5.0,82,0.00,,,0.00,WUHU216DAVISVP2,2013-03-27 12:57:00,
2013-03-27 09:02:00,32.8,27.9,30.25,West,259,2.0,6.0,82,0.00,,,0.00,WUHU216DAVISVP2,2013-03-27 13:02:00,
2013-03-27 09:07:00,32.8,27.9,30.25,West,267,2.0,6.0,82,0.00,,,0.00,WUHU216DAVISVP2,2013-03-27 13:07:00,
2013-03-27 09:12:00,32.8,27.9,30.25,WSW,250,1.3,6.0,82,0.00,,,0.00,WUHU216DAVISVP2,2013-03-27 13:12:00,
2013-03-27 09:17:00,32.9,27.7,30.25,WNW,301,3.0,8.0,81,0.00,,,0.00,WUHU216DAVISVP2,2013-03-27 13:17:00,
2013-03-27 09:23:00,32.8,27.9,30.25,West,275,1.1,8.0,82,0.00,,,0.00,WUHU216DAVISVP2,2013-03-27 13:23:00,
2013-03-27 09:27:00,32.9,27.7,30.25,West,259,2.5,7.0,81,0.00,,,0.00,WUHU216DAVISVP2,2013-03-27 13:27:00,
2013-03-27 09:32:00,33.0,27.8,30.25,West,259,4.0,7.0,81,0.00,,,0.00,WUHU216DAVISVP2,2013-03-27 13:32:00,
2013-03-27 09:37:00,33.1,27.9,30.25,South,190,3.0,6.0,81,0.00,,,0.00,WUHU216DAVISVP2,2013-03-27 13:37:00,
2013-03-27 09:42:00,33.2,28.0,30.25,NW,323,3.0,6.0,81,0.00,,,0.00,WUHU216DAVISVP2,2013-03-27 13:42:00,
2013-03-27 09:47:00,33.1,27.9,30.25,WSW,248,5.0,6.0,81,0.00,,,0.00,WUHU216DAVISVP2,2013-03-27 13:47:00,
2013-03-27 09:52:00,33.2,28.0,30.25,WSW,254,4.1,10.0,81,0.00,,,0.00,WUHU216DAVISVP2,2013-03-27 13:52:00,
2013-03-27 09:57:00,33.4,28.2,30.25,SW,236,4.0,10.0,81,0.00,,,0.00,WUHU216DAVISVP2,2013-03-27 13:57:00,
2013-03-27 10:03:00,33.6,28.1,30.25,WSW,252,3.2,10.0,80,0.00,,,0.00,WUHU216DAVISVP2,2013-03-27 14:03:00,
2013-03-27 10:08:00,33.8,28.6,30.25,WSW,250,3.4,10.0,81,0.00,,,0.00,WUHU216DAVISVP2,2013-03-27 14:08:00,
2013-03-27 10:13:00,33.8,28.6,30.25,WNW,285,3.0,7.0,81,0.00,,,0.00,WUHU216DAVISVP2,2013-03-27 14:13:00,
2013-03-27 10:17:00,33.8,28.3,30.24,West,268,5.3,9.0,80,0.00,,,0.00,WUHU216DAVISVP2,2013-03-27 14:17:00,
2013-03-27 10:23:00,33.8,28.6,30.25,WSW,248,2.1,9.0,81,0.00,,,0.00,WUHU216DAVISVP2,2013-03-27 14:23:00,
2013-03-27 10:28:00,33.9,28.4,30.25,WNW,287,4.0,9.0,80,0.00,,,0.00,WUHU216DAVISVP2,2013-03-27 14:28:00,
2013-03-27 10:33:00,34.0,28.5,30.25,WNW,287,3.0,9.0,80,0.00,,,0.00,WUHU216DAVISVP2,2013-03-27 14:33:00,
2013-03-27 10:38:00,34.1,28.6,30.25,WSW,252,3.0,6.0,80,0.00,,,0.00,WUHU216DAVISVP2,2013-03-27 14:38:00,
2013-03-27 10:43:00,34.1,28.3,30.25,West,261,6.0,8.0,79,0.00,,,0.00,WUHU216DAVISVP2,2013-03-27 14:43:00,
2013-03-27 10:48:00,34.4,28.9,30.25,West,260,1.9,8.0,80,0.00,,,0.00,WUHU216DAVISVP2,2013-03-27 14:48:00,
2013-03-27 10:53:00,34.5,29.3,30.25,West,276,2.0,8.0,81,0.00,,,0.00,WUHU216DAVISVP2,2013-03-27 14:53:00,
2013-03-27 10:58:00,34.8,29.3,30.25,WSW,256,2.3,8.0,80,0.00,,,0.00,WUHU216DAVISVP2,2013-03-27 14:58:00,
2013-03-27 11:03:00,34.8,29.0,30.25,West,262,1.6,6.0,79,0.00,,,0.00,WUHU216DAVISVP2,2013-03-27 15:03:00,
2013-03-27 11:08:00,34.7,28.9,30.25,WSW,251,2.8,6.0,79,0.00,,,0.00,WUHU216DAVISVP2,2013-03-27 15:08:00,
2013-03-27 11:13:00,34.5,28.4,30.25,WSW,254,1.6,6.0,78,0.00,,,0.00,WUHU216DAVISVP2,2013-03-27 15:13:00,
2013-03-27 11:17:00,34.5,28.7,30.25,West,274,1.8,6.0,79,0.00,,,0.00,WUHU216DAVISVP2,2013-03-27 15:17:00,
2013-03-27 11:23:00,34.5,29.0,30.25,WSW,250,2.0,6.0,80,0.00,,,0.00,WUHU216DAVISVP2,2013-03-27 15:23:00,
2013-03-27 11:28:00,34.5,29.0,30.26,WNW,290,2.0,6.0,80,0.00,,,0.00,WUHU216DAVISVP2,2013-03-27 15:28:00,
2013-03-27 11:33:00,34.4,28.6,30.26,NW,304,3.0,5.0,79,0.00,,,0.00,WUHU216DAVISVP2,2013-03-27 15:33:00,
2013-03-27 11:38:00,34.4,28.6,30.26,WSW,254,2.7,7.0,79,0.00,,,0.00,WUHU216DAVISVP2,2013-03-27 15:38:00,
2013-03-27 11:43:00,34.6,29.1,30.26,West,270,3.0,7.0,80,0.00,,,0.00,WUHU216DAVISVP2,2013-03-27 15:43:00,
2013-03-27 11:48:00,34.7,29.2,30.26,West,262,4.0,8.0,80,0.00,,,0.00,WUHU216DAVISVP2,2013-03-27 15:48:00,
2013-03-27 11:53:00,34.6,28.8,30.26,WSW,258,3.2,8.0,79,0.00,,,0.00,WUHU216DAVISVP2,2013-03-27 15:53:00,
2013-03-27 11:58:00,34.6,29.1,30.26,WSW,248,4.7,8.0,80,0.00,,,0.00,WUHU216DAVISVP2,2013-03-27 15:58:00,
2013-03-27 12:03:00,34.7,29.2,30.26,WSW,253,3.3,8.0,80,0.00,,,0.00,WUHU216DAVISVP2,2013-03-27 16:03:00,
2013-03-27 12:08:00,34.7,29.5,30.26,West,271,3.1,9.0,81,0.00,,,0.00,WUHU216DAVISVP2,2013-03-27 16:08:00,
2013-03-27 12:13:00,34.6,29.7,30.26,West,267,2.0,9.0,82,0.00,,,0.00,WUHU216DAVISVP2,2013-03-27 16:13:00,
2013-03-27 12:18:00,34.5,29.0,30.26,West,275,2.5,9.0,80,0.00,,,0.00,WUHU216DAVISVP2,2013-03-27 16:18:00,
2013-03-27 12:23:00,34.6,29.4,30.26,West,269,1.1,9.0,81,0.00,,,0.00,WUHU216DAVISVP2,2013-03-27 16:23:00,
2013-03-27 12:28:00,34.9,29.7,30.26,West,279,1.3,5.0,81,0.00,,,0.00,WUHU216DAVISVP2,2013-03-27 16:28:00,
2013-03-27 12:33:00,35.3,29.8,30.26,WSW,256,4.1,8.0,80,0.00,,,0.00,WUHU216DAVISVP2,2013-03-27 16:33:00,
2013-03-27 12:38:00,35.4,30.2,30.26,WSW,240,3.0,8.0,81,0.00,,,0.00,WUHU216DAVISVP2,2013-03-27 16:38:00,
2013-03-27 12:43:00,35.4,29.6,30.26,West,272,4.1,9.0,79,0.00,,,0.00,WUHU216DAVISVP2,2013-03-27 16:43:00,
2013-03-27 12:48:00,35.4,29.9,30.26,SW,227,3.0,9.0,80,0.00,,,0.00,WUHU216DAVISVP2,2013-03-27 16:48:00,
2013-03-27 12:53:00,35.4,29.6,30.26,WSW,255,4.2,9.0,79,0.00,,,0.00,WUHU216DAVISVP2,2013-03-27 16:53:00,
2013-03-27 12:58:00,35.5,29.7,30.26,WSW,258,3.6,9.0,79,0.00,,,0.00,WUHU216DAVISVP2,2013-03-27 16:58:00,
2013-03-27 13:03:00,35.7,30.1,30.26,WSW,250,9.0,9.0,80,0.00,,,0.00,WUHU216DAVISVP2,2013-03-27 17:03:00,
2013-03-27 13:08:00,35.7,29.8,30.26,SW,233,6.0,10.0,79,0.00,,,0.00,WUHU216DAVISVP2,2013-03-27 17:08:00,
2013-03-27 13:13:00,35.8,29.9,30.26,WSW,252,3.4,10.0,79,0.00,,,0.00,WUHU216DAVISVP2,2013-03-27 17:13:00,
2013-03-27 13:18:00,36.0,30.1,30.26,WNW,288,6.0,9.0,79,0.00,,,0.00,WUHU216DAVISVP2,2013-03-27 17:18:00,
2013-03-27 13:23:00,36.2,30.6,30.26,WNW,290,4.0,9.0,80,0.00,,,0.00,WUHU216DAVISVP2,2013-03-27 17:23:00,
2013-03-27 13:28:00,36.7,30.8,30.26,WSW,255,3.1,9.0,79,0.00,,,0.00,WUHU216DAVISVP2,2013-03-27 17:28:00,
2013-03-27 13:33:00,36.9,30.4,30.26,West,260,3.0,8.0,77,0.00,,,0.00,WUHU216DAVISVP2,2013-03-27 17:33:00,
2013-03-27 13:38:00,36.9,30.7,30.27,WSW,238,3.0,8.0,78,0.00,,,0.00,WUHU216DAVISVP2,2013-03-27 17:38:00,
2013-03-27 13:43:00,37.2,30.4,30.26,WNW,293,2.8,8.0,76,0.00,,,0.00,WUHU216DAVISVP2,2013-03-27 17:43:00,
2013-03-27 13:48:00,37.2,30.1,30.26,West,259,3.0,8.0,75,0.00,,,0.00,WUHU216DAVISVP2,2013-03-27 17:48:00,
2013-03-27 13:53:00,37.5,30.7,30.26,NW,320,6.0,9.0,76,0.00,,,0.00,WUHU216DAVISVP2,2013-03-27 17:53:00,
2013-03-27 13:58:00,37.9,31.1,30.26,NW,304,2.0,10.0,76,0.00,,,0.00,WUHU216DAVISVP2,2013-03-27 17:58:00,
2013-03-27 14:03:00,38.9,31.7,30.26,West,263,2.0,10.0,75,0.00,,,0.00,WUHU216DAVISVP2,2013-03-27 18:03:00,
2013-03-27 14:08:00,39.6,31.0,30.25,NW,306,3.8,10.0,71,0.00,,,0.00,WUHU216DAVISVP2,2013-03-27 18:08:00,
2013-03-27 14:13:00,39.7,32.2,30.25,SSW,207,4.0,9.0,74,0.00,,,0.00,WUHU216DAVISVP2,2013-03-27 18:13:00,
2013-03-27 14:18:00,39.7,31.1,30.25,NW,314,2.1,9.0,71,0.00,,,0.00,WUHU216DAVISVP2,2013-03-27 18:18:00,
2013-03-27 14:23:00,39.6,31.7,30.25,WSW,248,1.4,9.0,73,0.00,,,0.00,WUHU216DAVISVP2,2013-03-27 18:23:00,
2013-03-27 14:28:00,40.2,31.3,30.25,West,267,3.4,6.0,70,0.00,,,0.00,WUHU216DAVISVP2,2013-03-27 18:28:00,
2013-03-27 14:33:00,40.3,31.0,30.25,NW,318,2.0,6.0,69,0.00,,,0.00,WUHU216DAVISVP2,2013-03-27 18:33:00,
2013-03-27 14:39:00,39.9,29.5,30.24,NW,305,5.0,8.0,66,0.00,,,0.00,WUHU216DAVISVP2,2013-03-27 18:39:00,
2013-03-27 14:44:00,39.6,30.3,30.24,West,260,1.8,8.0,69,0.00,,,0.00,WUHU216DAVISVP2,2013-03-27 18:44:00,
2013-03-27 14:49:00,39.9,31.0,30.24,WNW,302,2.8,8.0,70,0.00,,,0.00,WUHU216DAVISVP2,2013-03-27 18:49:00,
2013-03-27 14:54:00,39.9,29.9,30.24,NW,325,3.7,9.0,67,0.00,,,0.00,WUHU216DAVISVP2,2013-03-27 18:54:00,
2013-03-27 14:59:00,39.8,29.4,30.24,WNW,302,3.4,9.0,66,0.00,,,0.00,WUHU216DAVISVP2,2013-03-27 18:59:00,
2013-03-27 15:04:00,39.5,29.4,30.24,WNW,286,3.4,9.0,67,0.00,,,0.00,WUHU216DAVISVP2,2013-03-27 19:04:00,
2013-03-27 15:09:00,38.9,29.6,30.24,WNW,283,5.6,10.0,69,0.00,,,0.00,WUHU216DAVISVP2,2013-03-27 19:09:00,
2013-03-27 15:14:00,37.8,31.2,30.24,SW,214,6.0,11.0,77,0.00,,,0.00,WUHU216DAVISVP2,2013-03-27 19:14:00,
2013-03-27 15:19:00,36.1,31.4,30.24,SW,236,3.0,11.0,83,0.00,,,0.00,WUHU216DAVISVP2,2013-03-27 19:19:00,
2013-03-27 15:24:00,35.9,32.1,30.24,WSW,252,0.0,10.0,86,0.00,,,0.00,WUHU216DAVISVP2,2013-03-27 19:24:00,
2013-03-27 15:29:00,36.3,31.9,30.23,West,260,2.0,10.0,84,0.00,,,0.00,WUHU216DAVISVP2,2013-03-27 19:29:00,
2013-03-27 15:34:00,37.0,32.3,30.23,West,259,1.3,5.0,83,0.00,,,0.00,WUHU216DAVISVP2,2013-03-27 19:34:00,
2013-03-27 15:39:00,37.8,32.5,30.23,West,267,1.4,3.0,81,0.00,,,0.00,WUHU216DAVISVP2,2013-03-27 19:39:00,
2013-03-27 15:44:00,38.6,32.7,30.23,West,263,1.3,3.0,79,0.00,,,0.00,WUHU216DAVISVP2,2013-03-27 19:44:00,
2013-03-27 15:49:00,39.9,32.0,30.22,SW,234,2.3,6.0,73,0.00,,,0.00,WUHU216DAVISVP2,2013-03-27 19:49:00,
2013-03-27 15:54:00,40.4,32.2,30.22,SSW,198,2.0,6.0,72,0.00,,,0.00,WUHU216DAVISVP2,2013-03-27 19:54:00,
2013-03-27 15:59:00,40.6,30.6,30.22,West,280,4.0,8.0,67,0.00,,,0.00,WUHU216DAVISVP2,2013-03-27 19:59:00,
2013-03-27 16:04:00,40.4,30.4,30.22,WSW,258,1.8,9.0,67,0.00,,,0.00,WUHU216DAVISVP2,2013-03-27 20:04:00,
2013-03-27 16:09:00,40.4,30.0,30.22,WNW,295,3.4,9.0,66,0.00,,,0.00,WUHU216DAVISVP2,2013-03-27 20:09:00,
2013-03-27 16:14:00,40.1,30.1,30.22,WNW,294,2.0,9.0,67,0.00,,,0.00,WUHU216DAVISVP2,2013-03-27 20:14:00,
2013-03-27 16:19:00,40.0,30.3,30.22,WSW,246,2.0,9.0,68,0.00,,,0.00,WUHU216DAVISVP2,2013-03-27 20:19:00,
2013-03-27 16:24:00,39.9,29.1,30.22,WNW,291,4.0,9.0,65,0.00,,,0.00,WUHU216DAVISVP2,2013-03-27 20:24:00,
2013-03-27 16:29:00,39.9,28.4,30.22,WNW,293,5.0,9.0,63,0.00,,,0.00,WUHU216DAVISVP2,2013-03-27 20:29:00,
2013-03-27 16:34:00,39.8,27.4,30.22,SW,233,8.0,16.0,61,0.00,,,0.00,WUHU216DAVISVP2,2013-03-27 20:34:00,
2013-03-27 16:39:00,39.8,27.8,30.22,WNW,298,6.0,16.0,62,0.00,,,0.00,WUHU216DAVISVP2,2013-03-27 20:39:00,
2013-03-27 16:44:00,40.0,27.7,30.22,NNW,340,8.0,16.0,61,0.00,,,0.00,WUHU216DAVISVP2,2013-03-27 20:44:00,
2013-03-27 16:49:00,40.2,27.5,30.22,WNW,290,2.2,16.0,60,0.00,,,0.00,WUHU216DAVISVP2,2013-03-27 20:49:00,
2013-03-27 16:54:00,40.6,27.4,30.22,WSW,248,6.0,14.0,59,0.00,,,0.00,WUHU216DAVISVP2,2013-03-27 20:54:00,
2013-03-27 16:59:00,40.9,28.1,30.22,WNW,290,4.0,14.0,60,0.00,,,0.00,WUHU216DAVISVP2,2013-03-27 20:59:00,
2013-03-27 17:04:00,40.9,27.7,30.22,WNW,286,2.1,8.0,59,0.00,,,0.00,WUHU216DAVISVP2,2013-03-27 21:04:00,
2013-03-27 17:09:00,40.8,28.5,30.22,West,278,7.0,8.0,61,0.00,,,0.00,WUHU216DAVISVP2,2013-03-27 21:09:00,
2013-03-27 17:14:00,40.6,27.9,30.22,WSW,239,4.6,10.0,60,0.00,,,0.00,WUHU216DAVISVP2,2013-03-27 21:14:00,
2013-03-27 17:19:00,40.5,28.2,30.22,WNW,284,5.0,11.0,61,0.00,,,0.00,WUHU216DAVISVP2,2013-03-27 21:19:00,
2013-03-27 17:24:00,40.5,27.8,30.23,WSW,250,4.6,14.0,60,0.00,,,0.00,WUHU216DAVISVP2,2013-03-27 21:24:00,
2013-03-27 17:29:00,40.3,28.0,30.23,NW,308,4.0,14.0,61,0.00,,,0.00,WUHU216DAVISVP2,2013-03-27 21:29:00,
2013-03-27 17:34:00,40.1,28.2,30.23,West,261,3.9,13.0,62,0.00,,,0.00,WUHU216DAVISVP2,2013-03-27 21:34:00,
2013-03-27 17:39:00,39.9,27.2,30.24,West,276,4.9,16.0,60,0.00,,,0.00,WUHU216DAVISVP2,2013-03-27 21:39:00,
2013-03-27 17:44:00,39.7,27.8,30.23,West,271,4.2,16.0,62,0.00,,,0.00,WUHU216DAVISVP2,2013-03-27 21:44:00,
2013-03-27 17:49:00,39.7,27.8,30.23,WNW,282,5.4,16.0,62,0.00,,,0.00,WUHU216DAVISVP2,2013-03-27 21:49:00,
2013-03-27 17:54:00,39.6,27.2,30.24,West,269,6.2,13.0,61,0.00,,,0.00,WUHU216DAVISVP2,2013-03-27 21:54:00,
2013-03-27 17:59:00,39.6,27.2,30.23,WSW,239,6.0,11.0,61,0.00,,,0.00,WUHU216DAVISVP2,2013-03-27 21:59:00,
2013-03-27 18:04:00,39.5,27.2,30.24,West,277,5.0,11.0,61,0.00,,,0.00,WUHU216DAVISVP2,2013-03-27 22:04:00,
2013-03-27 18:09:00,39.6,27.3,30.24,West,273,5.1,10.0,61,0.00,,,0.00,WUHU216DAVISVP2,2013-03-27 22:09:00,
2013-03-27 18:14:00,39.6,27.3,30.24,West,264,3.0,10.0,61,0.00,,,0.00,WUHU216DAVISVP2,2013-03-27 22:14:00,
2013-03-27 18:19:00,39.6,26.9,30.24,West,270,3.0,9.0,60,0.00,,,0.00,WUHU216DAVISVP2,2013-03-27 22:19:00,
2013-03-27 18:24:00,39.6,26.9,30.24,West,261,2.3,9.0,60,0.00,,,0.00,WUHU216DAVISVP2,2013-03-27 22:24:00,
2013-03-27 18:29:00,39.7,27.4,30.24,WSW,242,6.0,8.0,61,0.00,,,0.00,WUHU216DAVISVP2,2013-03-27 22:29:00,
2013-03-27 18:34:00,39.8,26.7,30.24,West,262,5.0,10.0,59,0.00,,,0.00,WUHU216DAVISVP2,2013-03-27 22:34:00,
2013-03-27 18:39:00,39.8,27.1,30.24,WNW,292,2.4,10.0,60,0.00,,,0.00,WUHU216DAVISVP2,2013-03-27 22:39:00,
2013-03-27 18:44:00,39.8,27.1,30.24,WSW,258,3.5,9.0,60,0.00,,,0.00,WUHU216DAVISVP2,2013-03-27 22:44:00,
2013-03-27 18:49:00,39.7,26.5,30.24,WSW,250,2.8,8.0,59,0.00,,,0.00,WUHU216DAVISVP2,2013-03-27 22:49:00,
2013-03-27 18:54:00,39.8,26.6,30.24,West,259,2.7,8.0,59,0.00,,,0.00,WUHU216DAVISVP2,2013-03-27 22:54:00,
2013-03-27 18:59:00,39.7,26.5,30.24,West,265,3.0,8.0,59,0.00,,,0.00,WUHU216DAVISVP2,2013-03-27 22:59:00,
2013-03-27 19:04:00,39.7,26.6,30.24,West,280,4.3,7.0,59,0.00,,,0.00,WUHU216DAVISVP2,2013-03-27 23:04:00,
2013-03-27 19:09:00,39.6,26.5,30.25,WNW,283,3.7,7.0,59,0.00,,,0.00,WUHU216DAVISVP2,2013-03-27 23:09:00,
2013-03-27 19:14:00,39.6,26.9,30.25,West,274,4.0,8.0,60,0.00,,,0.00,WUHU216DAVISVP2,2013-03-27 23:14:00,
2013-03-27 19:19:00,39.4,27.1,30.25,SW,232,10.0,11.0,61,0.00,,,0.00,WUHU216DAVISVP2,2013-03-27 23:19:00,
2013-03-27 19:24:00,39.3,26.6,30.25,West,272,6.1,11.0,60,0.00,,,0.00,WUHU216DAVISVP2,2013-03-27 23:24:00,
2013-03-27 19:29:00,39.1,26.8,30.25,WNW,284,3.1,11.0,61,0.00,,,0.00,WUHU216DAVISVP2,2013-03-27 23:29:00,
2013-03-27 19:34:00,39.0,26.8,30.25,WSW,254,3.4,10.0,61,0.00,,,0.00,WUHU216DAVISVP2,2013-03-27 23:34:00,
2013-03-27 19:39:00,38.9,26.7,30.25,West,277,3.0,10.0,61,0.00,,,0.00,WUHU216DAVISVP2,2013-03-27 23:39:00,
2013-03-27 19:44:00,38.9,26.6,30.25,WSW,252,3.8,9.0,61,0.00,,,0.00,WUHU216DAVISVP2,2013-03-27 23:44:00,
2013-03-27 19:49:00,38.7,26.9,30.25,WNW,288,1.8,9.0,62,0.00,,,0.00,WUHU216DAVISVP2,2013-03-27 23:49:00,
2013-03-27 19:54:00,38.6,27.2,30.25,WSW,249,1.6,7.0,63,0.00,,,0.00,WUHU216DAVISVP2,2013-03-27 23:54:00,
2013-03-27 19:59:00,38.6,27.5,30.25,WSW,242,4.0,7.0,64,0.00,,,0.00,WUHU216DAVISVP2,2013-03-27 23:59:00,
2013-03-27 20:04:00,38.5,27.5,30.25,SW,228,5.0,6.0,64,0.00,,,0.00,WUHU216DAVISVP2,2013-03-28 00:04:00,
2013-03-27 20:09:00,38.3,27.3,30.25,WSW,258,1.6,6.0,64,0.00,,,0.00,WUHU216DAVISVP2,2013-03-28 00:09:00,
2013-03-27 20:14:00,38.3,26.9,30.25,WSW,248,5.4,10.0,63,0.00,,,0.00,WUHU216DAVISVP2,2013-03-28 00:14:00,
2013-03-27 20:19:00,38.4,27.7,30.25,West,272,1.7,10.0,65,0.00,,,0.00,WUHU216DAVISVP2,2013-03-28 00:19:00,
2013-03-27 20:24:00,38.4,27.4,30.26,West,274,3.6,9.0,64,0.00,,,0.00,WUHU216DAVISVP2,2013-03-28 00:24:00,
2013-03-27 20:29:00,38.4,27.4,30.26,WNW,288,2.8,9.0,64,0.00,,,0.00,WUHU216DAVISVP2,2013-03-28 00:29:00,
2013-03-27 20:34:00,38.4,27.3,30.26,WSW,252,3.0,7.0,64,0.00,,,0.00,WUHU216DAVISVP2,2013-03-28 00:34:00,
2013-03-27 20:39:00,38.3,27.6,30.26,WNW,284,6.0,9.0,65,0.00,,,0.00,WUHU216DAVISVP2,2013-03-28 00:39:00,
2013-03-27 20:44:00,38.3,26.9,30.26,West,262,3.5,9.0,63,0.00,,,0.00,WUHU216DAVISVP2,2013-03-28 00:44:00,
2013-03-27 20:49:00,38.2,27.5,30.26,WNW,294,4.0,9.0,65,0.00,,,0.00,WUHU216DAVISVP2,2013-03-28 00:49:00,
2013-03-27 20:54:00,38.2,26.8,30.26,WSW,253,4.0,9.0,63,0.00,,,0.00,WUHU216DAVISVP2,2013-03-28 00:54:00,
2013-03-27 20:59:00,38.2,27.2,30.26,West,260,2.3,8.0,64,0.00,,,0.00,WUHU216DAVISVP2,2013-03-28 00:59:00,
2013-03-27 21:04:00,38.1,27.1,30.26,West,260,2.0,7.0,64,0.00,,,0.00,WUHU216DAVISVP2,2013-03-28 01:04:00,
2013-03-27 21:09:00,38.1,27.1,30.26,WSW,256,2.0,7.0,64,0.00,,,0.00,WUHU216DAVISVP2,2013-03-28 01:09:00,
2013-03-27 21:14:00,38.1,27.1,30.26,WNW,288,1.6,6.0,64,0.00,,,0.00,WUHU216DAVISVP2,2013-03-28 01:14:00,
2013-03-27 21:19:00,38.0,27.4,30.26,WSW,250,6.5,13.0,65,0.00,,,0.00,WUHU216DAVISVP2,2013-03-28 01:19:00,
2013-03-27 21:24:00,38.0,27.4,30.27,WNW,294,6.0,13.0,65,0.00,,,0.00,WUHU216DAVISVP2,2013-03-28 01:24:00,
2013-03-27 21:29:00,38.0,27.4,30.27,WSW,256,1.9,13.0,65,0.00,,,0.00,WUHU216DAVISVP2,2013-03-28 01:29:00,
2013-03-27 21:34:00,37.8,27.5,30.27,WSW,246,2.0,12.0,66,0.00,,,0.00,WUHU216DAVISVP2,2013-03-28 01:34:00,
2013-03-27 21:39:00,37.8,27.5,30.27,WSW,238,4.0,10.0,66,0.00,,,0.00,WUHU216DAVISVP2,2013-03-28 01:39:00,
2013-03-27 21:44:00,37.7,27.8,30.27,West,269,3.0,7.0,67,0.00,,,0.00,WUHU216DAVISVP2,2013-03-28 01:44:00,
2013-03-27 21:49:00,37.7,27.4,30.27,WSW,252,2.5,7.0,66,0.00,,,0.00,WUHU216DAVISVP2,2013-03-28 01:49:00,
2013-03-27 21:54:00,37.7,27.8,30.27,West,260,7.0,9.0,67,0.00,,,0.00,WUHU216DAVISVP2,2013-03-28 01:54:00,
2013-03-27 21:59:00,37.7,27.7,30.27,West,279,2.1,9.0,67,0.00,,,0.00,WUHU216DAVISVP2,2013-03-28 01:59:00,
2013-03-27 22:04:00,37.6,27.6,30.28,WSW,257,3.0,8.0,67,0.00,,,0.00,WUHU216DAVISVP2,2013-03-28 02:04:00,
2013-03-27 22:09:00,37.6,27.7,30.27,WSW,239,2.0,8.0,67,0.00,,,0.00,WUHU216DAVISVP2,2013-03-28 02:09:00,
2013-03-27 22:14:00,37.5,27.6,30.27,West,276,3.0,6.0,67,0.00,,,0.00,WUHU216DAVISVP2,2013-03-28 02:14:00,
2013-03-27 22:19:00,37.4,27.9,30.27,SW,225,2.0,5.0,68,0.00,,,0.00,WUHU216DAVISVP2,2013-03-28 02:19:00,
2013-03-27 22:24:00,37.4,27.9,30.27,West,259,2.4,5.0,68,0.00,,,0.00,WUHU216DAVISVP2,2013-03-28 02:24:00,
2013-03-27 22:29:00,37.3,27.8,30.27,WSW,247,1.9,5.0,68,0.00,,,0.00,WUHU216DAVISVP2,2013-03-28 02:29:00,
2013-03-27 22:34:00,37.3,28.1,30.28,WNW,292,2.0,5.0,69,0.00,,,0.00,WUHU216DAVISVP2,2013-03-28 02:34:00,
2013-03-27 22:39:00,37.2,28.0,30.28,WSW,244,1.2,5.0,69,0.00,,,0.00,WUHU216DAVISVP2,2013-03-28 02:39:00,
2013-03-27 22:44:00,37.1,27.9,30.27,West,276,1.0,5.0,69,0.00,,,0.00,WUHU216DAVISVP2,2013-03-28 02:44:00,
2013-03-27 22:49:00,37.0,28.2,30.27,West,267,1.0,4.0,70,0.00,,,0.00,WUHU216DAVISVP2,2013-03-28 02:49:00,
2013-03-27 22:54:00,36.9,28.1,30.27,West,259,1.4,4.0,70,0.00,,,0.00,WUHU216DAVISVP2,2013-03-28 02:54:00,
2013-03-27 22:59:00,36.8,28.0,30.27,WSW,258,1.4,3.0,70,0.00,,,0.00,WUHU216DAVISVP2,2013-03-28 02:59:00,
2013-03-27 23:04:00,36.8,28.3,30.27,NW,304,2.0,3.0,71,0.00,,,0.00,WUHU216DAVISVP2,2013-03-28 03:04:00,
2013-03-27 23:09:00,36.7,28.2,30.27,WSW,245,2.0,4.0,71,0.00,,,0.00,WUHU216DAVISVP2,2013-03-28 03:09:00,
2013-03-27 23:14:00,36.5,28.0,30.27,West,271,2.0,4.0,71,0.00,,,0.00,WUHU216DAVISVP2,2013-03-28 03:14:00,
2013-03-27 23:19:00,36.6,28.2,30.27,WSW,252,2.7,5.0,71,0.00,,,0.00,WUHU216DAVISVP2,2013-03-28 03:19:00,
2013-03-27 23:24:00,36.8,28.3,30.27,West,263,2.0,6.0,71,0.00,,,0.00,WUHU216DAVISVP2,2013-03-28 03:24:00,
2013-03-27 23:29:00,36.8,28.3,30.27,WSW,254,1.8,6.0,71,0.00,,,0.00,WUHU216DAVISVP2,2013-03-28 03:29:00,
2013-03-27 23:34:00,36.8,28.3,30.27,WSW,255,2.3,6.0,71,0.00,,,0.00,WUHU216DAVISVP2,2013-03-28 03:34:00,
2013-03-27 23:39:00,36.7,28.2,30.27,WSW,251,1.9,6.0,71,0.00,,,0.00,WUHU216DAVISVP2,2013-03-28 03:39:00,
2013-03-27 23:44:00,36.7,28.2,30.27,WNW,297,2.0,5.0,71,0.00,,,0.00,WUHU216DAVISVP2,2013-03-28 03:44:00,
2013-03-27 23:49:00,36.6,28.1,30.27,WSW,257,1.6,5.0,71,0.00,,,0.00,WUHU216DAVISVP2,2013-03-28 03:49:00,
2013-03-27 23:54:00,36.5,28.0,30.27,WSW,249,2.0,5.0,71,0.00,,,0.00,WUHU216DAVISVP2,2013-03-28 03:54:00,
2013-03-27 23:59:00,36.4,28.2,30.27,West,265,1.1,3.0,72,0.00,,,0.00,WUHU216DAVISVP2,2013-03-28 03:59:00,